Weather History for HELX - January, 2014

Change the Weather History Date:

Tuesday, January 28, 2014

  Actual Average Record
Temperature  
Mean Temperature 60 °F -  
Max Temperature 72 °F 74 °F 84 °F (2007)
Min Temperature 49 °F 47 °F 41 °F (1997)
Degree Days  
Heating Degree Days 4    
Growing Degree Days 10 (Base 50)    
Moisture  
Dew Point 39 °F    
Average Humidity 43    
Maximum Humidity 58    
Minimum Humidity 25    
Precipitation  
Precipitation 0.00 in 0.00 in - ()
Sea Level Pressure  
Sea Level Pressure 29.94 in    
Wind  
Wind Speed 2 mph ()    
Max Wind Speed 5 mph    
Max Gust Speed -    
Visibility 4.0 miles    
Events      
Averages and records for this station are not official NWS values.
T = Trace of Precipitation, MM = Missing Value Source: Averaged Metar Reports

Daily Weather History Graph

Daily Weather History Graph

Search for Another Location

Airport or City:

Trip Planner

Search our weather history database for the weather conditions in past years. The results will help you decide how hot, cold, wet, or windy it might be!

Date:

Astronomy

Jan. 28, 2014 Rise Set
Actual Time 6:34 AM EET 5:29 PM EET
Civil Twilight 6:10 AM EET 5:54 PM EET
Nautical Twilight 5:42 AM EET 6:21 PM EET
Astronomical Twilight 5:15 AM EET 6:49 PM EET
Moon 3:52 AM EET (1/28) 3:01 PM EET (1/28)
Length of Visible Light 11h 43m
Length of Day
10h 55m
Waning Crescent, 9% of the Moon is Illuminated
Jan 28
Waning Crescent
Jan 30
New
Feb 6
First Quarter
Feb 15
Full
Feb 22
Last Quarter

Hourly Weather History & Observations

Time (EET) Temp. Dew Point Humidity Pressure Visibility Wind Dir Wind Speed Gust Speed Precip Events Conditions
12:00 AM 59.0 °F 37.4 °F 45% 29.89 in - South 2.3 mph - N/A   Clear
1:00 AM 57.2 °F 39.2 °F 51% 29.89 in - SW 4.6 mph - N/A   Clear
2:00 AM 59 °F 38 °F 34% 29.90 in 6 mi WNW 4.6 mph - -  
2:00 AM 59.0 °F 37.4 °F 45% 29.89 in - WNW 4.6 mph - N/A   Clear
3:00 AM 55.4 °F 37.4 °F 51% 29.89 in - SSE 1.2 mph - N/A   Clear
4:00 AM 55.4 °F 35.6 °F 47% 29.89 in - SE 1.2 mph - N/A   Clear
5:00 AM 51 °F 38 °F 51% 29.92 in 6 mi SW 4.6 mph - -  
5:00 AM 51.8 °F 37.4 °F 58% 29.89 in - SW 4.6 mph - N/A   Clear
6:00 AM 51.8 °F 35.6 °F 54% 29.92 in - SW 4.6 mph - N/A   Clear
7:00 AM 53.6 °F 33.8 °F 47% 29.95 in - Calm Calm - N/A   Clear
8:00 AM 53 °F 34 °F 36% 29.97 in 4 mi Calm Calm - -   Haze
8:00 AM 53.6 °F 33.8 °F 47% 29.95 in 3.7 mi Calm Calm - N/A   Unknown
9:00 AM 60.8 °F 37.4 °F 42% 29.98 in 3.7 mi Calm Calm - N/A   Unknown
10:00 AM 64.4 °F 37.4 °F 37% 29.98 in 3.7 mi NNW 2.3 mph - N/A   Unknown
11:00 AM 66 °F 40 °F 27% 29.99 in 4 mi North 2.3 mph - -   Haze
11:00 AM 66.2 °F 39.2 °F 37% 29.98 in 3.7 mi North 2.3 mph - N/A   Unknown
12:00 PM 68.0 °F 41.0 °F 37% 29.95 in 3.7 mi North 4.6 mph - N/A   Unknown
1:00 PM 69.8 °F 42.8 °F 38% 29.92 in 3.7 mi North 3.5 mph - N/A   Unknown
2:00 PM 70 °F 42 °F 25% 29.92 in 4 mi North 2.3 mph - -   Haze
2:00 PM 69.8 °F 42.8 °F 38% 29.92 in 3.7 mi North 2.3 mph - N/A   Unknown
3:00 PM 71.6 °F 42.8 °F 35% 29.92 in 3.7 mi West 2.3 mph - N/A   Unknown
4:00 PM 71.6 °F 42.8 °F 35% 29.92 in 3.7 mi Calm Calm - N/A   Unknown
5:00 PM 69 °F 42 °F 26% 29.92 in 4 mi SW 2.3 mph - -   Haze
5:00 PM 69.8 °F 42.8 °F 38% 29.92 in 3.7 mi SW 2.3 mph - N/A   Unknown
6:00 PM 64.4 °F 44.6 °F 49% 29.92 in 3.7 mi West 2.3 mph - N/A   Unknown
7:00 PM 62.6 °F 44.6 °F 52% 29.95 in 3.7 mi West 2.3 mph - N/A   Unknown
8:00 PM 60 °F 44 °F 43% 29.96 in 4 mi Calm Calm - -   Haze
8:00 PM 59.0 °F 42.8 °F 55% 29.95 in 3.7 mi Calm Calm - N/A   Unknown
9:00 PM 59.0 °F 39.2 °F 48% 29.95 in 3.7 mi SSE 3.5 mph - N/A   Unknown
10:00 PM 57.2 °F 39.2 °F 51% 29.98 in 3.7 mi Calm Calm - N/A   Unknown
11:00 PM 55 °F 38 °F 41% 29.99 in 4 mi Calm Calm - -   Haze
11:00 PM 55.4 °F 37.4 °F 51% 29.98 in 3.7 mi Calm Calm - N/A   Unknown